Overview Statistics Trail Chart Weather Telemetry Raw packets
 

This is the latest recevied weather packets stored in our database for station/object KN6CRX-10. If no packets are shown the sender has not sent any weather packets the latest 10 day(s).

<< 38 39 40 41 42 >>
Time Temp. Humidity Pressure Rain* Wind** Luminosity Snow
1788138587 23.89° C 26% 1018.5 hPa 0 mm - 37 W/m² -
1788138287 24.44° C 25% 1018.4 hPa 0 mm - 61 W/m² -
1788137983 23.89° C 27% 1018.4 hPa 0 mm - 43 W/m² -
1788137679 23.89° C 27% 1018.3 hPa 0 mm - 41 W/m² -
1788137377 24.44° C 26% 1018.3 hPa 0 mm - 39 W/m² -
1788137074 25° C 25% 1018.5 hPa 0 mm - 78 W/m² -
1788136770 25° C 24% 1018.6 hPa 0 mm - 50 W/m² -
1788136465 25° C 24% 1018.4 hPa 0 mm - 41 W/m² -
1788136165 25° C 23% 1018.6 hPa 0 mm - 50 W/m² -
1788135864 25° C 24% 1018.4 hPa 0 mm - 43 W/m² -
1788135560 25° C 25% 1018.4 hPa 0 mm - 44 W/m² -
1788135255 25° C 25% 1018.4 hPa 0 mm - 44 W/m² -
1788134953 25° C 25% 1018.6 hPa 0 mm - 48 W/m² -
1788134648 25° C 24% 1018.4 hPa 0 mm - 58 W/m² -
1788134346 25° C 24% 1018.5 hPa 0 mm - 47 W/m² -
1788134040 25° C 23% 1018.4 hPa 0 mm - 48 W/m² -
1788133736 25° C 25% 1018.3 hPa 0 mm - 51 W/m² -
1788133432 25° C 25% 1018.3 hPa 0 mm - 54 W/m² -
1788133128 25° C 25% 1018.3 hPa 0 mm - 59 W/m² -
1788132823 25° C 26% 1018.4 hPa 0 mm - 86 W/m² -
1788132518 25° C 24% 1018.4 hPa 0 mm - 108 W/m² -
1788132214 25° C 25% 1018.3 hPa 0 mm - 117 W/m² -
1788131910 25° C 27% 1018.2 hPa 0 mm - 129 W/m² -
1788131605 24.44° C 30% 1018.3 hPa 0 mm - 111 W/m² -
1788131305 25° C 35% 1018.4 hPa 0 mm - 118 W/m² -

* Rain latest hour (hover to see other rain measurements)
** Current wind speed in m/s (hover to see current wind gust speed)